Regional Weather Roundup
Issued by NWS

Home | Current Version | Previous Version | Text Only | Print | Product List | Glossary On
Versions: 1 2 3 4 5 6 7 8 9 10 11 12 13 14 15 16 17 18 19 20 21 22 23 24 25 26 27 28 29 30 31 32 33 34 35 36 37 38 39 40 41 42 43 44 45 46 47 48 49 50
170
ASUS44 KLIX 250005
RWRLA
LOUISIANA WEATHER ROUNDUP
NATIONAL WEATHER SERVICE NEW ORLEANS LA
600 PM CST SAT JAN 24 2015

NOTE: "FAIR" INDICATES FEW OR NO CLOUDS BELOW 12,000 FEET WITH NO
      SIGNIFICANT WEATHER AND/OR OBSTRUCTIONS TO VISIBILITY.
      SKY/WX - SKY CONDITION AND SIGNIFICANT WEATHER.
      TMP - AIR TEMPERATURE.    DP   - DEWPOINT TEMPERATURE.
      RH  - RELATIVE HUMIDITY.  PRES - PRESSURE.
      HX  - HEAT INDEX.         WCI  - WIND CHILL INDEX.

*  THESE STATIONS ARE NOT NWS OR FAA STATIONS AND ARE NOT UNDER
   NWS QUALITY CONTROL.

LAZ040-048-061>063-065-066-069-250100-
SOUTHEAST LOUISIANA

CITY           SKY/WX    TMP DP  RH WIND       PRES   REMARKS
N.O. AUDUBON     N/A     50  36  59 MISG        N/A
6HR MIN TEMP:  50; 6HR MAX TEMP:  57;

N.O. INTL ARPT PTCLDY    51  31  46 SW7       30.10R
6HR MIN TEMP:  51; 6HR MAX TEMP:  58;

N.O. LAKEFRONT CLEAR     54  37  52 SW6       30.11R
6HR MIN TEMP:  50; 6HR MAX TEMP:  56;

N.O. DOWNTOWN* FAIR      54  30  40 S5        30.11R
SLIDELL        CLEAR     47  38  71 CALM      30.08S
6HR MIN TEMP:  47; 6HR MAX TEMP:  59;

BATON ROUGE    CLEAR     50  32  50 W5        30.08S
6HR MIN TEMP:  50; 6HR MAX TEMP:  59;

BOOTHVILLE     CLEAR     50  38  63 W6        30.11S
6HR MIN TEMP:  50; 6HR MAX TEMP:  54;

BELLE CHASSE   PTCLDY    51  30  44 W5        30.10R
6HR MIN TEMP:  50; 6HR MAX TEMP:  58;

BOGALUSA*        N/A     47  37  66 CALM      30.08S
6HR MIN TEMP:  47; 6HR MAX TEMP:  59;

GALLIANO*      CLEAR     52  43  71 MISG      30.12S
6HR MIN TEMP:  52; 6HR MAX TEMP:  59;

NEW ROADS*     FAIR      51  38  60 SW5       30.08F
6HR MIN TEMP:  51; 6HR MAX TEMP:  58;

GONZALES*      FAIR      51  33  50 SW3       30.09S
6HR MIN TEMP:  51; 6HR MAX TEMP:  58;

HAMMOND*       CLEAR     54  28  37 CALM      30.09S
HOUMA*         CLEAR     50  37  62 SW7       30.10S
PORT FOURCHON* CLEAR     52  39  62 W10       30.15S

$$

LAZ041-044-053-054-250100-
SOUTHWEST LOUISIANA

CITY           SKY/WX    TMP DP  RH WIND       PRES   REMARKS
LAKE CHARLES   PTCLDY    51  43  74 SW9       30.10S
6HR MIN TEMP:  51; 6HR MAX TEMP:  58;

LAFAYETTE      CLEAR     51  39  63 SW7       30.10S
6HR MIN TEMP:  51; 6HR MAX TEMP:  58;

PATTERSON      CLEAR     48  39  71 SW10      30.14R
6HR MIN TEMP:  48; 6HR MAX TEMP:  57;

SALT POINT       N/A     51  43  74 SW9       30.12S
6HR MIN TEMP:  50; 6HR MAX TEMP:  54;

NEW IBERIA     CLEAR     51  38  60 SW8       30.11S
6HR MIN TEMP:  51; 6HR MAX TEMP:  59;

CHENAULT AIRPK CLEAR     52  43  71 S12       30.10

$$

LAZ027-028-250100-
CENTRAL LOUISIANA

CITY           SKY/WX    TMP DP  RH WIND       PRES   REMARKS
FORT POLK      PTCLDY    54  41  61 SW5       30.05F
6HR MIN TEMP:  52; 6HR MAX TEMP:  60;

ALEXANDRIA INT PTCLDY    50  40  68 SW6       30.03F
6HR MIN TEMP:  50; 6HR MAX TEMP:  59;

ALEXANDRIA     PTCLDY    50  39  66 CALM      30.05S
6HR MIN TEMP:  50; 6HR MAX TEMP:  61;


$$

LAZ001-002-250100-
NORTHWEST LOUISIANA

CITY           SKY/WX    TMP DP  RH WIND       PRES   REMARKS
SHREVEPORT     MOCLDY    51  34  52 CALM      30.02S
6HR MIN TEMP:  50; 6HR MAX TEMP:  59;

BARKSDALE AFB  PTCLDY    53  30  41 SW2       30.02S
6HR MIN TEMP:  53; 6HR MAX TEMP:  60;

DTN SHREVEPORT PTCLDY    54  30  40 SW5       30.02S
6HR MIN TEMP:  52; 6HR MAX TEMP:  59;


$$

LAZ014-016-250100-
NORTHEAST LOUISIANA

CITY           SKY/WX    TMP DP  RH WIND       PRES   REMARKS
MONROE         CLEAR     50  38  63 S6        30.03S
6HR MIN TEMP:  48; 6HR MAX TEMP:  59;

TALLULAH       PTCLDY    50  38  63 S5        30.03S
6HR MIN TEMP:  50; 6HR MAX TEMP:  57;


$$




USA.gov is the U.S. government's official web portal to all federal, state and local government web resources and services.